Regional Weather Roundup
Issued by NWS Wakefield, VA

Home | Current Version | Previous Version | Text Only | Print | Product List | Glossary On
Versions: 1 2 3 4 5 6 7 8 9 10 11 12 13 14 15 16 17 18 19 20 21 22 23 24 25 26 27 28 29 30 31 32 33 34 35 36 37 38 39 40 41 42 43 44 45 46 47 48 49 50
000
ASUS41 KAKQ 281110
RWRAKQ

REGIONAL WEATHER ROUNDUP
NATIONAL WEATHER SERVICE WAKEFIELD VA
600 AM EST FRI NOV 28 2014

Note: "fair" indicates few or no clouds below 12,000 feet with no
significant weather and/or obstructions to visibility. * = Denotes
station may not report precipitation (e.g., rain,snow,etc.),
thunder or fog.

VAZ042-051-052>054-056-281200-
NORTHERN VIRGINIA

CITY           SKY/WX    TMP DP  RH WIND       PRES   REMARKS
WASH NATIONAL  CLEAR     35  20  54 NW9       30.26R
DULLES         PTCLDY    31  22  69 W8        30.26R
FORT BELVOIR   CLEAR     33  21  60 W8        30.27R
QUANTICO       CLEAR     33  21  61 NW10      30.29R WCI  25
FREDERICKSBRG* CLEAR     31  23  73 W3        30.27R
STAFFORD*      CLEAR     30  19  62 CALM      30.32R
WARRENTON      CLEAR     31  26  82 W3        30.26R
CULPEPER*      MOCLDY    28  25  86 CALM      30.28R
MANASSAS*      CLEAR     32  25  74 NW10G18   30.27R WCI  24
LEESBURG*      CLOUDY    34  28  80 W8        30.26R
WINCHESTER     MOCLDY    32  21  64 W8        30.24R
FRONT ROYAL*   CLOUDY    32  19  59 NW6       30.24R
LURAY*         PTSUNNY   32  23  69 SW6       30.25R
$$

VAZ048-049-060>072-079>083-281200-
CENTRAL AND SOUTH CENTRAL VIRGINIA

CITY           SKY/WX    TMP DP  RH WIND       PRES   REMARKS
RICHMOND       CLEAR     30  24  78 NW5       30.27R
CHESTERFIELD*  SUNNY     27  10  50 CALM      30.28R
PETERSBURG*    CLEAR     31  23  72 NW3       30.29R
HANOVER        CLEAR     26  25  96 CALM      30.28S
TAPPAHANNOCK*  CLEAR     30  22  73 SW3       30.27R
QUINTON*       SUNNY     29  25  82 W5        30.27S
CHARLOTTSVILLE PTCLDY    31  18  58 CALM      30.26R
GORDONSVILLE*  PTSUNNY   29  23  76 CALM      30.26S
ORANGE*        CLOUDY    32  27  80 SE3       30.28R
LOUISA*        MOCLDY    30  21  69 W3        30.25R
BUMPASS*       SUNNY     27  25  90 CALM      30.26R
FARMVILLE*     CLEAR     30  21  70 SW3       30.28R
CREWE*         SUNNY     31  20  64 W7        30.27R
FORT PICKETT*  SUNNY     29  22  75 W3        30.27R
CHASE CITY*    SUNNY     29  26  86 CALM      30.29R
CLARKSVILLE*   SUNNY     30  21  69 W5        30.29R
SOUTH HILL*    CLEAR     29  20  70 NW3       30.34R
LAWRENCEVILLE* SUNNY     28  24  83 CALM      30.27S
$$

VAZ088>098-281200-
SOUTHEAST VIRGINIA

CITY           SKY/WX    TMP DP  RH WIND       PRES   REMARKS
NORFOLK        CLEAR     37  23  56 N10G23    30.25R
VIRGINIA BEACH PTCLDY    37  24  59 N16G29    30.25R
NORFOLK NAVAL  CLEAR     37  24  59 NW14G21   30.27R
WEST POINT*    CLEAR     33  25  71 NW3       30.28S
SALUDA*        FAIR      34  25  71 NW10      30.25R
NEWPORT NEWS   CLEAR     35  25  66 NW8       30.26R
LANGLEY AFB    CLEAR     34  24  68 NW9       30.27R
FORT EUSTIS    CLEAR     35  23  62 VRB7G17   30.25R
WILLIAMSBURG*  CLEAR     32  28  86 NW5       30.28R
HR EXEC AP*    SUNNY     28  25  86 CALM      30.29R
FRANKLIN*      CLEAR     28  27  93 NW3       30.28R
WAKEFIELD      CLEAR     29  25  85 CALM      30.28R
$$

VAZ020-022-025-037-045-281200-
WEST CENTRAL AND SOUTHWEST VIRGINIA

CITY           SKY/WX    TMP DP  RH WIND       PRES   REMARKS
STAUNTON*      CLEAR     29  18  62 W7        30.26R
WAYNESBORO*    SUNNY     24  16  71 CALM      30.24R
HOT SPRINGS VA FLURRIES  19  18  96 NW12G20   30.08R WCI   6
LYNCHBURG      CLEAR     28  18  66 W3        30.28R
DANVILLE       CLEAR     28  21  75 SW3       30.31R
SOUTH BOSTON*  SUNNY     27  22  81 CALM      30.31R
MARTINSVILLE   CLOUDY    31  19  62 CALM      30.33R
ROANOKE        MOCLDY    31  14  49 W7        30.30R
BLACKSBURG     PTCLDY    27  18  69 NW12G17   30.26R WCI  16
DUBLIN*        PTCLDY    27  15  60 NW9       30.26S
MARION*        CLOUDY    26  19  75 W10       30.26R WCI  17
HILLSVILLE*    CLOUDY    24  16  69 NW14      30.21R WCI  12
RICHLANDS*     CLOUDY    27  22  83 NW7       30.25R
WISE*          MOCLDY    23  16  74 NW3       30.28S
ABINGDON*      CLOUDY    28  20  72 W3        30.30R
$$

MDZ021>025-VAZ099-100-281200-
SOUTHERN MARYLAND AND THE DELMARVA PENINSULA

CITY           SKY/WX    TMP DP  RH WIND       PRES   REMARKS
PATUXENT RIVER PTCLDY    33  22  63 W8        30.24R
BAY BRIDGE APT   N/A     34  23  64 W9        30.23R
LEONARDTOWN    CLEAR     32  21  64 W7        30.25R
DOVER          CLEAR     32  24  73 W6        30.17R
GEORGETOWN     CLEAR     33  23  66 W5        30.21R
EASTON         CLEAR     36  27  69 NW8       30.26R
CAMBRIDGE      CLEAR     36  25  64 NW10G16   30.22R
SALISBURY      CLEAR     34  24  67 W6        30.21R
OCEAN CITY     CLEAR     33  24  69 NW6       30.20R
WALLOPS ISLAND CLEAR     33  23  66 NW8       30.23R
ACCOMACK*      MOCLDY    36  25  64 NW16G24   30.23R
$$

NCZ012>017-030>032-281200-
NORTH CENTRAL AND EASTERN NORTH CAROLINA

CITY           SKY/WX    TMP DP  RH WIND       PRES   REMARKS
ROANOKE RAPIDS SUNNY     32  23  69 NW3       30.29R
RALEIGH        CLEAR     30  21  69 CALM      30.31R
ELIZABETH CITY CLEAR     37  27  67 NW12      30.26R
AHOSKIE*       CLEAR     30  24  79 CALM      30.29R
EDENTON*         N/A     33  28  80 NW8       30.27R
CURRITUCK*     CLEAR     34  28  79 NW5       30.25R
KILL DEVIL HLS CLEAR     37  30  75 NW10G17   30.21S
MANTEO         CLEAR     38  30  72 NW12G20   30.23S
CAPE HATTERAS  CLEAR     40  29  64 N12G23    30.22R
TARBORO*       SUNNY     29  26  86 CALM      30.31R
GOLDSBORO      CLEAR     31  28  87 CALM      30.29R
WASHINGTON     CLEAR     31  26  80 NW3       30.29R
GREENVILLE     CLEAR     32  27  80 CALM      30.30R
NEW BERN       CLEAR     35  24  64 NW7       30.30R
WILMINGTON     CLEAR     33  26  75 N9        30.30R
$$

VAZ048-281200-
ELSEWHERE

CITY           SKY/WX    TMP DP  RH WIND       PRES   REMARKS
HARRISBURG PA  PTCLDY    31  20  63 NW9       30.19R
BALTIMORE      CLEAR     31  22  69 W10       30.21R WCI  22
ANNAPOLIS      CLEAR     33  22  63 W6        30.22R
ANDREWS AFB    CLEAR     32  21  62 W9        30.23R
PHILADELPHIA   PTCLDY    34  22  61 W9        30.17R
WILDWOOD NJ*   CLEAR     36  21  55 NW14G25   30.17R
HENDERSON NC   CLEAR     31  20  65 W5        30.29R
GREENSBORO     CLEAR     27  17  66 NW5       30.29R
ROCKY MOUNT    CLEAR     31  22  69 W5        30.30R
$$

VAZ100-281200-
MARINE

STATION/POSITION TIME  TEMP    WIND        PRES    WAVE   SWELL
                       AIR SEA DIR/SP/G            HT/PER HT/PER
                 (UTC) (F)     (DEG/KT/KT) (MB)    (FT/S) (FT/S)
CAPE MAY NJ      1100   37 45  320/ 12/ 22 1021.4R
LEWES DE         1100   36 46  310/ 19/ 21 1022.1S
15NM E FENWICK I 1100   39 53              1021.0R   5/ 5
OCEAN-CITY-INLET 1100   36 47  340/ 11/ 16 1021.9R
WACHAPREAGUE VA  1100   36 45  350/  5/ 14 1023.6R
THOMAS POINT MD  1100   35 46  290/ 15/ 16 1024.6R
GOOSES REEF MD   1100   35     310/ 16/ 19 1023.8F
COVE POINT MD    1100   33     320/  8/ 10 1023.8R
SOLOMONS ISLAND  1100      48                N/A
BISHOPS HEAD MD  1100   36 41  320/ 14/ 20 1023.0S
PINEY POINT MD   1100          320/ 24/ 26   N/A
POTOMAC MD       1100   37     330/ 17/ 21 1023.3S
CAMBRIDGE MD     1100   37 44  310/ 13/ 18 1023.4R
LEWISETTA VA     1100   37 46  330/  9/ 13 1024.1R
RAPPAHANNOCK LGT 1100          320/ 27/ 30 1024.2R
STINGRAY PT      1100   37     330/ 16/ 23 1024.6R
YORK RVR RNG VA  1100   36     330/ 14/ 18 1024.0R
YORKTOWN VA      1100   36 50  330/ 14/ 16 1024.3R
JAMESTOWN VA     1100   36     360/  6/ 12   N/A
DOMINION TERM VA 1100   36     350/ 11/ 15 1024.6R
KIPTOPEKE VA     1100      51  350/ 20/ 27   N/A
CHES BAY BRIDGE  1100   38 50  340/ 26/ 30 1023.6R
CAPE HENRY VA    1100   38     340/ 28/ 33 1022.5R
CHESAPEAKE LGHT  1000   39     340/ 27/ 30 1023.2R
WILLOUBY STN VA  1100   36     330/ 13/ 16 1023.1R
S CRANEY ISL VA  1100          300/ 10/ 14 1024.4R
CAPE HENRY BUOY  1100      55                N/A     5/ 5   2/13
1ST LANDING BUOY 1100   40     350/ 27/ 33 1023.1S
CAPE CHARLES BUO 1100      54                N/A     4/ 5   2/10
64NM E OF VA BCH 1100   46 63  320/ 23/ 27 1021.0R   6/ 7   2/ 9
DUCK PIER NC     1100   39 53  330/ 18/ 21 1022.5F
44100 DUCK FRF   1100      56                N/A     6/ 7   2/14
44056 DUCK FRF   1100      54                N/A     5/ 6   2/13
OREGON INLET NC  1100   39 54  320/ 14/ 20 1023.2R
HATTERAS NC      1100   42 54  330/ 21/ 25 1023.6R
DIAMOND SHLS NC  1100   45     310/ 19/ 25 1022.4R   6/ 4   3/ 8
CAPE LOOKOUT NC  1100   38     340/ 23/ 25 1024.4R
$$


USA.gov is the U.S. government's official web portal to all federal, state and local government web resources and services.